Kosmos-2181

operational
NORAD ID: 21902 Int'l Des: 1992-012 Owner: VMFR Country: RU
LEOCIRCULARPOLAR

About Kosmos-2181

Description loading...

Live Position

Loading 3D Globe...

Upcoming Passes

Altitude History

Altitude vs Time

uPlot chart will show altitude changes over time

Two-Line Element Set

1 21902U 92012A 26063.37760319 .00000049 00000-0 36793-4 0 9996
2 21902 82.9451 25.2620 0028854 13.6075 107.2662 13.72563450701942
Epoch: Mar 4, 2026 • Age: 24 hours

Current Status

Altitude 1011.0 km
Velocity 7.35 km/s
Sub-Earth Point -65.71°S, 152.27°W
Launch Date Mar 9, 1992
Age 33.9 years
Type other

Technical Details

Classification Payload
Mass 800.00 kg
Dry Mass 800.00 kg
Total Mass 800.00 kg
Length 5.00 m
Diameter 2.10 m
Span 17.00 m
Shape Cyl + Ant
Manufacturer POL
Bus Type KAUR-1 11F643
Phase Status In Orbit
Owner/State VMFR/RU

Large Constellations

Loading constellations...